When you browse on this site, cookies collect data to enhance your experience and personalize the content and advertising you see.
Visit our Privacy Policy to learn more. By continuing to use the site, you agree to this use of cookies and data.
  • In Hungary
  • List of Countries
  • For 7 days
  • Water Temperature
  • Satellite Maps
  • Weather Map
  • News
  • Weather Widgets
  • user-avatar
    Login

    Hourly Weather Yevpatoria

    Today, 18 January, Friday

    Time Temperature Precipitation Wind Pressure Humidity
    00:00 +2°C° 0 mm 7 mps 764 mmHg 83%
    01:00 +2°C° 0 mm 7 mps 763 mmHg 84%
    02:00 +1°C° 0 mm 8 mps 763 mmHg 86%
    03:00 +2°C° 0 mm 8 mps 762 mmHg 86%
    04:00 +2°C° 0 mm 8 mps 762 mmHg 86%
    05:00 +4°C° 0 mm 8 mps 762 mmHg 86%
    06:00 +4°C° 0 mm 8 mps 762 mmHg 86%
    07:00 +5°C° 0 mm 8 mps 762 mmHg 86%
    08:00 +5°C° 0 mm 8 mps 762 mmHg 87%
    09:00 +5°C° 0 mm 8 mps 762 mmHg 85%
    10:00 +6°C° 0 mm 9 mps 762 mmHg 84%
    11:00 +7°C° 0 mm 9 mps 762 mmHg 82%
    12:00 +7°C° 0 mm 9 mps 762 mmHg 82%
    13:00 +7°C° 0 mm 9 mps 762 mmHg 83%
    14:00 +7°C° 0 mm 9 mps 762 mmHg 83%
    15:00 +7°C° 0 mm 8 mps 762 mmHg 85%
    16:00 +6°C° 0 mm 8 mps 762 mmHg 87%
    17:00 +6°C° 0 mm 7 mps 762 mmHg 90%
    18:00 +6°C° 0 mm 7 mps 762 mmHg 90%
    19:00 +6°C° 0 mm 7 mps 762 mmHg 90%
    20:00 +6°C° 0 mm 7 mps 762 mmHg 91%
    21:00 +6°C° 0 mm 7 mps 762 mmHg 90%
    22:00 +6°C° 0 mm 7 mps 762 mmHg 89%
    23:00 +6°C° 0 mm 7 mps 762 mmHg 88%

    Tomorrow, 19 January, Saturday

    Time Temperature Precipitation Wind Pressure Humidity
    00:00 +6°C° 0 mm 7 mps 761 mmHg 88%
    01:00 +6°C° 0 mm 7 mps 761 mmHg 87%
    02:00 +6°C° 0 mm 7 mps 761 mmHg 87%
    03:00 +6°C° 0 mm 7 mps 761 mmHg 88%
    04:00 +6°C° 0 mm 7 mps 761 mmHg 90%
    05:00 +6°C° 0 mm 7 mps 761 mmHg 92%
    06:00 +7°C° 0 mm 6 mps 761 mmHg 91%
    07:00 +5°C° 0 mm 6 mps 761 mmHg 90%
    08:00 +6°C° 0 mm 5 mps 762 mmHg 90%
    09:00 +6°C° 0 mm 5 mps 762 mmHg 84%
    10:00 +6°C° 0 mm 4 mps 762 mmHg 79%
    11:00 +6°C° 0 mm 4 mps 763 mmHg 73%
    12:00 +5°C° 0 mm 5 mps 763 mmHg 73%
    13:00 +5°C° 0 mm 5 mps 763 mmHg 73%
    14:00 +4°C° 0 mm 6 mps 764 mmHg 72%
    15:00 +3°C° 0 mm 6 mps 764 mmHg 74%
    16:00 +2°C° 0 mm 6 mps 765 mmHg 76%
    17:00 +2°C° 0 mm 7 mps 765 mmHg 79%
    18:00 +1°C° 0 mm 6 mps 765 mmHg 78%
    19:00 +1°C° 0 mm 6 mps 766 mmHg 77%
    20:00 +1°C° 0 mm 6 mps 766 mmHg 77%
    21:00 -1°C° 0 mm 6 mps 767 mmHg 78%
    22:00 -2°C° 0 mm 6 mps 767 mmHg 80%
    23:00 -2°C° 0 mm 6 mps 767 mmHg 81%

    Day after tomorrow, 20 January, Sunday

    Time Temperature Precipitation Wind Pressure Humidity
    00:00 -3°C° 0 mm 6 mps 767 mmHg 81%
    01:00 -3°C° 0 mm 6 mps 767 mmHg 80%
    02:00 -4°C° 0 mm 6 mps 768 mmHg 79%
    03:00 -4°C° 0 mm 6 mps 767 mmHg 78%
    04:00 -4°C° 0 mm 6 mps 767 mmHg 77%
    05:00 -4°C° 0 mm 6 mps 767 mmHg 77%
    06:00 -4°C° 0 mm 6 mps 767 mmHg 77%
    07:00 -4°C° 0 mm 5 mps 767 mmHg 77%
    08:00 -4°C° 0 mm 5 mps 767 mmHg 77%
    09:00 -1°C° 0 mm 4 mps 767 mmHg 74%
    10:00 0°C° 0 mm 4 mps 767 mmHg 70%
    11:00 +2°C° 0 mm 3 mps 767 mmHg 67%
    12:00 +4°C° 0 mm 2 mps 766 mmHg 66%
    13:00 +5°C° 0 mm 2 mps 766 mmHg 65%
    14:00 +6°C° 0 mm 1 mps 765 mmHg 64%
    15:00 +5°C° 0 mm 1 mps 765 mmHg 67%
    16:00 +4°C° 0 mm 2 mps 765 mmHg 71%
    17:00 +3°C° 0 mm 2 mps 765 mmHg 75%
    18:00 +3°C° 0 mm 2 mps 765 mmHg 77%
    19:00 +2°C° 0 mm 2 mps 764 mmHg 79%
    20:00 +2°C° 0 mm 2 mps 764 mmHg 81%
    21:00 +3°C° 0.1 mm 2 mps 764 mmHg 80%
    22:00 +3°C° 0.1 mm 2 mps 764 mmHg 80%
    23:00 +3°C° 0.1 mm 2 mps 763 mmHg 80%

    21 January, Monday

    Time Temperature Precipitation Wind Pressure Humidity
    00:00 +3°C° 0 mm 3 mps 763 mmHg 81%
    01:00 +3°C° 0 mm 3 mps 763 mmHg 82%
    02:00 +4°C° 0 mm 3 mps 762 mmHg 84%
    03:00 +4°C° 0.2 mm 4 mps 761 mmHg 85%
    04:00 +4°C° 0.2 mm 4 mps 761 mmHg 86%
    05:00 +5°C° 0.2 mm 5 mps 760 mmHg 87%
    06:00 +4°C° 0.4 mm 6 mps 760 mmHg 86%
    07:00 +5°C° 0.4 mm 6 mps 760 mmHg 85%
    08:00 +5°C° 0.4 mm 7 mps 759 mmHg 84%
    09:00 +6°C° 0.2 mm 8 mps 759 mmHg 86%
    10:00 +6°C° 0.2 mm 8 mps 759 mmHg 88%
    11:00 +6°C° 0.2 mm 8 mps 759 mmHg 89%
    12:00 +6°C° 0.3 mm 8 mps 759 mmHg 89%
    13:00 +5°C° 0.3 mm 7 mps 759 mmHg 88%
    14:00 +5°C° 0.3 mm 7 mps 759 mmHg 88%
    15:00 +4°C° 0.1 mm 7 mps 759 mmHg 87%
    16:00 +3°C° 0.1 mm 7 mps 760 mmHg 86%
    17:00 +2°C° 0.1 mm 7 mps 761 mmHg 85%
    18:00 0°C° 0 mm 8 mps 762 mmHg 83%
    19:00 -1°C° 0 mm 8 mps 762 mmHg 82%
    20:00 -2°C° 0 mm 8 mps 763 mmHg 80%
    21:00 -4°C° 0 mm 8 mps 764 mmHg 79%
    22:00 -4°C° 0 mm 8 mps 765 mmHg 78%
    23:00 -4°C° 0 mm 7 mps 765 mmHg 77%

    22 January, Tuesday

    Time Temperature Precipitation Wind Pressure Humidity
    00:00 -6°C° 0 mm 7 mps 766 mmHg 76%
    01:00 -6°C° 0 mm 7 mps 766 mmHg 74%
    02:00 -7°C° 0 mm 7 mps 767 mmHg 73%
    03:00 -7°C° 0 mm 7 mps 767 mmHg 71%
    04:00 -7°C° 0 mm 7 mps 767 mmHg 69%
    05:00 -7°C° 0 mm 7 mps 767 mmHg 68%
    06:00 -7°C° 0 mm 7 mps 768 mmHg 68%
    07:00 -6°C° 0 mm 6 mps 768 mmHg 68%
    08:00 -6°C° 0 mm 6 mps 768 mmHg 68%
    09:00 -5°C° 0 mm 6 mps 768 mmHg 63%
    10:00 -5°C° 0 mm 6 mps 768 mmHg 58%
    11:00 -4°C° 0 mm 6 mps 768 mmHg 53%
    12:00 -2°C° 0 mm 5 mps 768 mmHg 50%
    13:00 -2°C° 0 mm 5 mps 768 mmHg 47%
    14:00 -1°C° 0 mm 4 mps 767 mmHg 43%
    15:00 -2°C° 0 mm 4 mps 767 mmHg 47%
    16:00 -2°C° 0 mm 4 mps 767 mmHg 50%
    17:00 -3°C° 0 mm 4 mps 766 mmHg 54%
    18:00 -3°C° 0 mm 4 mps 766 mmHg 57%
    19:00 -3°C° 0 mm 4 mps 766 mmHg 60%
    20:00 -4°C° 0 mm 4 mps 766 mmHg 63%
    21:00 -4°C° 0 mm 4 mps 766 mmHg 64%
    22:00 -4°C° 0 mm 4 mps 765 mmHg 64%
    23:00 -4°C° 0 mm 4 mps 765 mmHg 65%

    23 January, Wednesday

    Time Temperature Precipitation Wind Pressure Humidity
    00:00 -4°C° 0 mm 4 mps 765 mmHg 66%
    01:00 -4°C° 0 mm 4 mps 764 mmHg 66%
    02:00 -4°C° 0 mm 4 mps 764 mmHg 67%
    03:00 -4°C° 0 mm 4 mps 763 mmHg 66%
    04:00 -4°C° 0 mm 4 mps 763 mmHg 66%
    05:00 -4°C° 0 mm 4 mps 762 mmHg 66%
    06:00 -4°C° 0 mm 4 mps 762 mmHg 65%
    07:00 -5°C° 0 mm 5 mps 762 mmHg 64%
    08:00 -5°C° 0 mm 5 mps 762 mmHg 63%
    09:00 -4°C° 0 mm 5 mps 761 mmHg 59%
    10:00 -1°C° 0 mm 5 mps 761 mmHg 54%
    11:00 0°C° 0 mm 5 mps 761 mmHg 50%
    12:00 +1°C° 0 mm 5 mps 760 mmHg 50%
    13:00 +1°C° 0 mm 5 mps 759 mmHg 49%
    14:00 +2°C° 0 mm 5 mps 759 mmHg 49%
    15:00 +2°C° 0 mm 5 mps 758 mmHg 57%
    16:00 +1°C° 0 mm 5 mps 758 mmHg 65%
    17:00 0°C° 0 mm 5 mps 757 mmHg 74%
    18:00 0°C° 0.1 mm 5 mps 757 mmHg 77%
    19:00 +1°C° 0.1 mm 5 mps 757 mmHg 81%
    20:00 +1°C° 0.1 mm 4 mps 756 mmHg 84%
    21:00 +1°C° 0.1 mm 5 mps 756 mmHg 84%
    22:00 +2°C° 0.1 mm 5 mps 756 mmHg 84%
    23:00 +2°C° 0.1 mm 5 mps 755 mmHg 84%
    Show more